Tracking 19219 objects as of 21-Jul-2018
HD Live streaming from Space Station
objects crossing your sky now

FENGYUN 1C DEB

Track FENGYUN 1C DEB now!
10-day predictions


NORAD ID: 38813
Int'l Code: 1999-025EVD
Perigee: 845.5 km
Apogee: 854.8 km
Inclination: 99.3 °
Period: 101.8 minutes
Semi major axis: 7221 km
RCS: 0.0036 m2 (small)
Launch date: May 10, 1999
Source: People's Republic of China (PRC)
Launch site: Taiyaun Space Center, China (TSC)

Note: This is SATELLITE DEBRIS
aabbcc
Your satellite tracking list
Your tracking list is empty




NASA's NSSDC Master Catalog

Two Line Element Set (TLE):
1 38813U 99025EVD 18201.35530686  .00000139  00000-0  97192-4 0  9991
2 38813  99.3454  48.8438 0006479 151.0946 209.0586 14.14791044399989
Source of the keplerian elements: AFSPC